Overview Statistics Trail Chart Weather Telemetry Raw packets
 

This is the latest recevied weather packets stored in our database for station/object EA2MKR. If no packets are shown the sender has not sent any weather packets the latest 10 day(s).

<< 35 36 37 38 39 40 41 >>
Time Temp. Humidity Pressure Rain* Wind** Luminosity Snow
1788386720 17.78° C 85% 961.3 hPa 0 mm - - -
1788386543 17.78° C 84% 961.3 hPa 0 mm - - -
1788386115 18.33° C 84% 961.3 hPa 0 mm - - -
1788385814 18.33° C 83% 961.4 hPa 0 mm - - -
1788385515 18.33° C 82% 961.3 hPa 0 mm - - -
1788385214 18.33° C 82% 961.3 hPa 0 mm - - -
1788384914 18.89° C 82% 961.3 hPa 0 mm - - -
1788384737 18.89° C 82% 961.3 hPa 0 mm - - -
1788384313 18.33° C 83% 961.3 hPa 0 mm - - -
1788384148 18.89° C 82% 961.2 hPa 0 mm - - -
1788383713 18.89° C 80% 961.3 hPa 0 mm - - -
1788383413 19.44° C 79% 961.1 hPa 0 mm - - -
1788383113 19.44° C 80% 961.1 hPa 0 mm - - -
1788382812 19.44° C 80% 961.2 hPa 0 mm - - -
1788382635 19.44° C 79% 961.2 hPa 0 mm - - -
1788382209 19.44° C 79% 961.2 hPa 0 mm - - -
1788381906 19.44° C 79% 961.2 hPa 0 mm - - -
1788381730 19.44° C 79% 961.3 hPa 0 mm - - -
1788381306 19.44° C 78% 961.2 hPa 0 mm - - -
1788381005 19.44° C 78% 961.1 hPa 0 mm - - -
1788380705 20° C 78% 961.2 hPa 0 mm - - -
1788380529 20° C 78% 961.1 hPa 0 mm - - -
1788380106 20° C 78% 961.1 hPa 0 mm - - -
1788379805 20° C 78% 961.1 hPa 0 mm - - -
1788379505 20° C 77% 961.2 hPa 0 mm - - -

* Rain latest hour (hover to see other rain measurements)
** Current wind speed in m/s (hover to see current wind gust speed)